Hourly Data Report for September 01, 2020

OTTAWA INTL A
ONTARIO
Current Station Operator: NAVCAN

45°19'00.000" N
75°40'00.000" W
114.90 m
6106001
71628
YOW

Download Data

Hourly Data (September 2020)
Hourly Data Report for September 1, 2020
TIME Temp Definition
°C
Dew Point Definition
°C
Rel Hum Definition
%
Wind Dir Definition
10's deg

Wind Spd Definition
km/h
Visibility Definition
km
Stn Press Definition
kPa
Hmdx Definition


Wind Chill Definition


Weather Definition


00:00 14.7 11.3 80 7 8 24.1 100.28     LegendNANA
01:00 13.8 11.3 85 8 13 24.1 100.26     Mostly Cloudy
02:00 12.7 11.3 91 6 10 24.1 100.25     LegendNANA
03:00 12.7 11.6 93 8 12 24.1 100.22     LegendNANA
04:00 12.7 11.7 93 6 8 24.1 100.22     Mostly Cloudy
05:00 13.0 12.1 94 6 8 24.1 100.25     LegendNANA
06:00 13.4 12.5 94 5 7 24.1 100.30     LegendNANA
07:00 15.3 13.8 91 7 7 24.1 100.28     Mostly Cloudy
08:00 17.4 15.1 86 9 7 24.1 100.28     LegendNANA
09:00 21.2 16.5 74 16 14 24.1 100.29 26   LegendNANA
10:00 22.4 16.7 70 20 23 24.1 100.26 27   Mostly Cloudy
11:00 22.6 17.3 72 18 14 24.1 100.23 28   LegendNANA
12:00 22.8 18.0 74 18 10 24.1 100.23 29   LegendNANA
13:00 22.9 17.3 70 19 18 24.1 100.23 28   Mostly Cloudy
14:00 24.0 18.7 72 18 14 24.1 100.15 31   LegendNANA
15:00 24.5 18.3 68 16 18 24.1 100.12 31   LegendNANA
16:00 22.9 17.6 71 18 12 24.1 100.14 29   Cloudy
17:00 22.5 17.9 75 17 11 24.1 100.17 28   LegendNANA
18:00 21.8 17.9 78 14 12 24.1 100.10 28   LegendNANA
19:00 20.8 17.7 82 16 13 24.1 100.10 27   Mostly Cloudy
20:00 21.0 17.4 79 16 13 24.1 100.12 27   LegendNANA
21:00 20.2 17.3 83 15 15 24.1 100.08 26   LegendNANA
22:00 19.7 17.3 86 15 13 24.1 100.04     Mostly Cloudy
23:00 19.4 17.3 88 15 14 24.1 99.98     LegendNANA

Notes on Data Quality.

Legend

  • E = Estimated
  • M = Missing
  • NA = Not Available*
  • [empty] = Indicates an unobserved value
Date modified: